Terminal Aerodrome Forecast
Issued by NWS Sioux Falls, SD

Home | Current Version | Previous Version | Text Only | Print | Product List | Glossary On
Versions: 1 2 3 4 5 6 7 8 9 10 11 12 13 14 15 16 17
000
FTUS43 KFSD 170817 AAA
TAFSUX
TAF AMD
KSUX 170817Z 1708/1806 14012KT P6SM OVC020
     FM170900 15015KT P6SM BKN250
     FM171300 16011KT P6SM OVC008
      TEMPO 1715/1717 4SM BR
     FM171700 21006KT P6SM OVC010
     FM171900 25007KT P6SM OVC015
     FM172100 31009KT P6SM OVC045
     FM180200 35007KT P6SM OVC035=

USA.gov is the U.S. government's official web portal to all federal, state and local government web resources and services.